Preview of NWS' New Version of Forecast
This preview is not operational and should not be used for support decisions.

Regional Weather Roundup (RWR)

Issued by National Weather Service (NWS)

                            
000
ASUS43 KLSX 232207
RWRMO 

WEATHER SUMMARY FOR MISSOURI
NATIONAL WEATHER SERVICE SPRINGFIELD MO
500 PM CDT THU MAY 23 2019

NOTE: "FAIR" INDICATES FEW OR NO CLOUDS BELOW 12,000 FEET WITH NO
       SIGNIFICANT WEATHER AND/OR OBSTRUCTIONS TO VISIBILITY.
       CURRENT SKY AND/OR WEATHER CONDITIONS ARE NOT AVAILABLE FOR
       CHILLICOTHE AND FARMINGTON.

MOZ001>031-035>038-043-044-053-054-232300-
...NORTHERN AND WESTERN MISSOURI...
  
CITY           SKY/WX    TMP DP  RH WIND       PRES   REMARKS
KANSAS CTY INT CLOUDY    74  61  63 E9        30.04F                  
KANSAS C DTWN  CLOUDY    77  60  55 NE8       30.02F                  
LEE'S SUMMIT   CLOUDY    74  63  68 E8        30.04F                  
ST JOSEPH      CLOUDY    74  56  53 E7        30.05F                  
CHILLICOTHE      N/A     76  56  49 CALM      30.07F                  
KIRKSVILLE     MOSUNNY   76  59  55 S3        30.08R                  
     
$$
MOZ066>068-077>081-088>096-101>105-232300-
...SOUTHWEST MISSOURI...
  
CITY           SKY/WX    TMP DP  RH WIND       PRES   REMARKS
SPRINGFIELD    SUNNY     85  70  60 S16       30.02F                  
JOPLIN         SUNNY     84  72  67 S14       30.00F                  
BRANSON        MOSUNNY   84  70  61 S10       30.07F                  
               
$$
MOZ032>034-039>042-045>050-055>058-069>072-232300-
...CENTRAL MISSOURI...  
  
CITY           SKY/WX    TMP DP  RH WIND       PRES   REMARKS
COLUMBIA       SUNNY     79  66  64 S7        30.06F                  
ROLLA          SUNNY     78  69  73 CALM      30.07F                  
SEDALIA        MOSUNNY   76  69  79 VRB3      30.06F                  
WHITEMAN AFB   MOSUNNY   78  70  78 E5        30.00F                  
WARRENSBURG    CLOUDY    75  64  69 E3        30.04F                  
OSAGE BEACH    SUNNY     80  72  76 NE6       30.05F                  
               
$$
MOZ051-052-059>065-232300-
...EAST CENTRAL MISSOURI...
  
CITY           SKY/WX    TMP DP  RH WIND       PRES   REMARKS
ST LOUIS INTL  PTSUNNY   80  65  59 W6        30.08F                  
SPIRIT OF STL  MOSUNNY   81  66  60 CALM      30.07F                  
ST CHARLES     SUNNY     79  64  60 W6        30.07S                  
                   
$$
MOZ072>076-082>087-097>100-106>115-232300-
...SOUTH CENTRAL AND SOUTHEAST MISSOURI...
  
CITY           SKY/WX    TMP DP  RH WIND       PRES   REMARKS
CAPE GIRARDEAU FAIR      87  72  60 SW15G26   30.04F HX  93           
FARMINGTON     PTSUNNY   80  69  69 N8        30.09S                  
POPLAR BLUFF   FAIR      86  73  65 S14       30.05F HX  93           
WEST PLAINS    MOSUNNY   85  71  63 S10G22    30.09F HX  90           
                                       
$$